Weather History for KPHP - February, 2012

Change the Weather History Date:

Tuesday, February 7, 2012

  Actual Average Record
Temperature  
Mean Temperature 17 °F 24 °F  
Max Temperature 27 °F 37 °F 74 °F (2015)
Min Temperature 6 °F 11 °F -22 °F (2014)
Degree Days  
Heating Degree Days 48 41  
Month to date heating degree days 254 289  
Since 1 July heating degree days 3869 4554  
Cooling Degree Days 0 0  
Month to date cooling degree days 0 0  
Year to date cooling degree days 0 0  
Moisture  
Dew Point 11 °F    
Average Humidity 69    
Maximum Humidity 88    
Minimum Humidity 50    
Precipitation  
Precipitation T in 0.01 in 0.15 in (1967)
Month to date precipitation T 0.08  
Year to date precipitation 0.21 0.38  
Sea Level Pressure  
Sea Level Pressure 30.60 in    
Wind  
Wind Speed 6 mph (NE)    
Max Wind Speed 5 mph    
Max Gust Speed 5 mph    
Visibility 10 miles    
Events      
T = Trace of Precipitation, MM = Missing Value Source: NWS Daily Summary

Daily Weather History Graph

Daily Weather History Graph

Search for Another Location

Airport or City:

Trip Planner

Search our weather history database for the weather conditions in past years. The results will help you decide how hot, cold, wet, or windy it might be!

Date:

Astronomy

Feb. 07, 2012 Rise Set
Actual Time 6:57 AM MST 5:04 PM MST
Civil Twilight 6:27 AM MST 5:34 PM MST
Nautical Twilight 5:52 AM MST 6:08 PM MST
Astronomical Twilight 5:19 AM MST 6:42 PM MST
Moon 5:19 PM MST (2/7) 6:26 AM MST (2/7)
Length of Visible Light 11h 07m
Length of Day
10h 07m
Full, 100% of the Moon is Illuminated
Feb 7
Full
Feb 7
Full
Feb 14
Last Quarter
Feb 21
New
Feb 29
First Quarter

Hourly Weather History & Observations

Time (MST) Temp. Windchill Dew Point Humidity Pressure Visibility Wind Dir Wind Speed Gust Speed Precip Events Conditions
12:22 AM 24.8 °F 12.4 °F 19.4 °F 80% 30.46 in 10.0 mi NNE 15.0 mph - N/A   Overcast
12:55 AM 23.0 °F 10.1 °F 18.0 °F 81% 30.53 in 10.0 mi NNE 15.0 mph 20.7 mph 0.00 in   Overcast
1:55 AM 23.0 °F 11.1 °F 18.0 °F 81% 30.57 in 10.0 mi NNE 12.7 mph 19.6 mph N/A   Overcast
2:14 AM 21.2 °F 7.8 °F 17.6 °F 86% 30.50 in 10.0 mi North 15.0 mph - N/A   Overcast
2:46 AM 21.2 °F 8.3 °F 15.8 °F 80% 30.50 in 10.0 mi NNE 13.8 mph - N/A   Overcast
2:55 AM 21.0 °F 7.6 °F 16.0 °F 81% 30.59 in 10.0 mi NNE 15.0 mph - N/A   Overcast
3:55 AM 19.9 °F 7.9 °F 15.1 °F 81% 30.60 in 10.0 mi NNE 11.5 mph - N/A   Overcast
4:55 AM 19.9 °F 11.1 °F 15.1 °F 81% 30.61 in 10.0 mi NNE 6.9 mph - N/A   Overcast
5:55 AM 18.0 °F 6.9 °F 12.0 °F 78% 30.64 in 10.0 mi NNE 9.2 mph - N/A   Overcast
6:02 AM 17.6 °F 5.0 °F 12.2 °F 79% 30.55 in 10.0 mi NNE 11.5 mph - N/A   Overcast
6:55 AM 14.0 °F 3.9 °F 10.0 °F 84% 30.67 in 10.0 mi NNE 6.9 mph - N/A   Overcast
7:08 AM 14.0 °F 5.1 °F 10.4 °F 86% 30.57 in 10.0 mi NNE 5.8 mph - N/A   Overcast
7:55 AM 15.1 °F 0.5 °F 10.0 °F 80% 30.67 in 10.0 mi NNE 13.8 mph - N/A   Overcast
8:55 AM 15.1 °F 3.3 °F 10.0 °F 80% 30.69 in 10.0 mi NNE 9.2 mph - N/A   Mostly Cloudy
9:55 AM 17.1 °F 8.7 °F 10.0 °F 74% 30.68 in 10.0 mi NE 5.8 mph - N/A   Overcast
10:41 AM 19.4 °F 9.5 °F 10.4 °F 68% 30.58 in 10.0 mi NE 8.1 mph - N/A   Scattered Clouds
10:55 AM 19.0 °F 10.0 °F 10.0 °F 68% 30.68 in 10.0 mi NE 6.9 mph - N/A   Partly Cloudy
11:55 AM 23.0 °F 14.7 °F 10.0 °F 58% 30.64 in 10.0 mi NE 6.9 mph - N/A   Clear
12:55 PM 24.1 °F 17.0 °F 10.0 °F 55% 30.63 in 10.0 mi East 5.8 mph - 0.00 in   Clear
1:55 PM 25.0 °F 18.1 °F 10.0 °F 53% 30.61 in 10.0 mi NE 5.8 mph - N/A   Clear
2:55 PM 26.1 °F 20.5 °F 10.0 °F 51% 30.60 in 10.0 mi NE 4.6 mph - N/A   Clear
3:55 PM 25.0 °F 19.3 °F 10.0 °F 53% 30.58 in 10.0 mi SE 4.6 mph - N/A   Clear
4:55 PM 23.0 °F 18.4 °F 9.0 °F 55% 30.58 in 10.0 mi ESE 3.5 mph - N/A   Clear
5:55 PM 19.0 °F - 8.1 °F 62% 30.59 in 10.0 mi Calm Calm - N/A   Clear
6:55 PM 15.1 °F 7.7 °F 7.0 °F 70% 30.61 in 10.0 mi East 4.6 mph - N/A   Clear
7:55 PM 12.0 °F 4.1 °F 7.0 °F 80% 30.61 in 10.0 mi ENE 4.6 mph - N/A   Clear
8:55 PM 10.9 °F - 6.1 °F 81% 30.61 in 10.0 mi Calm Calm - N/A   Clear
9:55 PM 10.0 °F - 5.0 °F 80% 30.59 in 10.0 mi Calm Calm - N/A   Clear
10:55 PM 9.0 °F - 3.9 °F 80% 30.58 in 10.0 mi Calm Calm - N/A   Clear